Trinidad, CO

12:37 AM MDT on March 25, 2017 (GMT -0600)
Stokes

Weather History for KTAD - July, 2013

Change the Weather History Date:

Monday, July 22, 2013

  Actual Average Record
Temperature  
Mean Temperature 81 °F 74 °F  
Max Temperature 97 °F 89 °F 101 °F (1952)
Min Temperature 64 °F 59 °F 47 °F (1961)
Cooling Degree Days 16 9  
Month to date cooling degree days 219 192  
Year to date cooling degree days 563  
Since 1 June cooling degree days 500  
Growing Degree Days 30 (Base 50)    
Moisture  
Dew Point 43 °F    
Average Humidity 34    
Maximum Humidity 56    
Minimum Humidity 11    
Precipitation  
Precipitation 0.00 in 0.09 in 1.38 in (1954)
Month to date precipitation 1.13  
Year to date precipitation 4.15  
Sea Level Pressure  
Sea Level Pressure 29.76 in    
Wind  
Wind Speed 9 mph (WNW)    
Max Wind Speed 22 mph    
Max Gust Speed 25 mph    
Visibility 10 miles    
Events      
T = Trace of Precipitation, MM = Missing Value Source: NWS Daily Summary

Daily Weather History Graph

Daily Weather History Graph

Search for Another Location

Airport or City:

Trip Planner

Search our weather history database for the weather conditions in past years. The results will help you decide how hot, cold, wet, or windy it might be!

Date:

Astronomy

Jul. 22, 2013 Rise Set
Actual Time 5:54 AM MDT 8:13 PM MDT
Civil Twilight 5:24 AM MDT 8:42 PM MDT
Nautical Twilight 4:48 AM MDT 9:18 PM MDT
Astronomical Twilight 4:08 AM MDT 9:58 PM MDT
Moon 8:03 PM MDT (7/22) 5:52 AM MDT (7/22)
Length of Visible Light 15h 17m
Length of Day
14h 18m
Full, 100% of the Moon is Illuminated
Jul 22
Full
Jul 22
Full
Jul 29
Last Quarter
Aug 6
New
Aug 14
First Quarter

Hourly Weather History & Observations

Time (MDT) Temp. Dew Point Humidity Pressure Visibility Wind Dir Wind Speed Gust Speed Precip Events Conditions
12:54 AM 73.0 °F 51.1 °F 46% 29.77 in 10.0 mi WSW 12.7 mph - N/A   Clear
1:54 AM 71.1 °F 52.0 °F 51% 29.76 in 10.0 mi WSW 15.0 mph - N/A   Clear
2:54 AM 69.1 °F 52.0 °F 54% 29.75 in 10.0 mi WSW 17.3 mph - N/A   Clear
3:54 AM 68.0 °F 51.1 °F 55% 29.74 in 10.0 mi WSW 18.4 mph - N/A   Clear
4:54 AM 68.0 °F 48.9 °F 50% 29.74 in 10.0 mi WSW 18.4 mph 25.3 mph N/A   Clear
5:54 AM 64.9 °F 48.9 °F 56% 29.78 in 10.0 mi Calm Calm - N/A   Clear
6:54 AM 68.0 °F 46.9 °F 47% 29.78 in 10.0 mi West 9.2 mph - N/A   Clear
7:54 AM 73.0 °F 48.0 °F 41% 29.80 in 10.0 mi West 9.2 mph - N/A   Clear
8:54 AM 79.0 °F 48.0 °F 34% 29.79 in 10.0 mi WNW 9.2 mph - N/A   Clear
9:54 AM 87.1 °F 41.0 °F 20% 29.76 in 10.0 mi West 11.5 mph - N/A   Clear
10:54 AM 89.1 °F 39.9 °F 18% 29.78 in 10.0 mi Variable 6.9 mph - N/A   Clear
11:54 AM 93.0 °F 36.0 °F 13% 29.75 in 10.0 mi Variable 4.6 mph - N/A   Clear
12:54 PM 95.0 °F 33.1 °F 11% 29.74 in 10.0 mi NNE 9.2 mph - N/A   Clear
1:54 PM 95.0 °F 34.0 °F 12% 29.74 in 10.0 mi NNW 11.5 mph - N/A   Clear
2:54 PM 91.9 °F 32.0 °F 12% 29.74 in 10.0 mi NNW 3.5 mph - N/A   Clear
3:54 PM 89.1 °F 37.9 °F 16% 29.75 in 10.0 mi WNW 15.0 mph 24.2 mph N/A   Clear
4:54 PM 91.9 °F 34.0 °F 13% 29.73 in 10.0 mi WNW 8.1 mph - N/A   Clear
5:54 PM 89.1 °F 39.9 °F 18% 29.75 in 10.0 mi NW 6.9 mph - N/A   Clear
6:54 PM 87.1 °F 45.0 °F 23% 29.75 in 10.0 mi North 3.5 mph - N/A   Clear
7:54 PM 84.9 °F 39.9 °F 20% 29.75 in 10.0 mi Calm Calm - N/A   Clear
8:54 PM 82.0 °F 39.0 °F 22% 29.77 in 10.0 mi Calm Calm - N/A   Clear
9:54 PM 75.0 °F 45.0 °F 34% 29.79 in 10.0 mi WNW 6.9 mph - N/A   Clear
10:54 PM 71.1 °F 46.0 °F 41% 29.80 in 10.0 mi West 11.5 mph - N/A   Clear
11:54 PM 72.0 °F 46.0 °F 40% 29.80 in 10.0 mi West 12.7 mph - N/A   Clear